Binghamton, NY

3:29 AM EDT on September 21, 2019 (GMT -0400)
Binghamton Regional-Link

Weather History for KBGM - August, 2019

Change the Weather History Date:

Thursday, August 22, 2019

  Actual Average Record
Temperature  
Mean Temperature 66 °F 67 °F  
Max Temperature 75 °F 76 °F 87 °F (1955)
Min Temperature 57 °F 58 °F 42 °F (1982)
Degree Days  
Heating Degree Days 0 1  
Month to date heating degree days 4 22  
Since 1 June heating degree days 98 137  
Since 1 July heating degree days 4 46  
Cooling Degree Days 1 3  
Month to date cooling degree days 100 85  
Year to date cooling degree days 360 320  
Since 1 June cooling degree days 353 297  
Growing Degree Days 18 (Base 50)    
Moisture  
Dew Point 61 °F    
Average Humidity 77    
Maximum Humidity 100    
Minimum Humidity 53    
Precipitation  
Precipitation 0.00 in 0.11 in 1.80 in (2010)
Month to date precipitation 3.19 2.47  
Year to date precipitation 28.57 25.23  
Snow  
Snow 0.00 in 0.00 in 0.00 in (2002)
Month to date snowfall 0.0 0.0  
Since 1 June snowfall 0.0 0.0  
Since 1 July snowfall 0.0 0.0  
Snow Depth 0.00 in    
Sea Level Pressure  
Sea Level Pressure 29.92 in    
Wind  
Wind Speed 7 mph (WNW)    
Max Wind Speed 14 mph    
Max Gust Speed 18 mph    
Visibility 9 miles    
Events      
T = Trace of Precipitation, MM = Missing Value Source: NWS Daily Summary

Daily Weather History Graph

Daily Weather History Graph

Search for Another Location

Airport or City:

Astronomy

Aug. 22, 2019 Rise Set
Actual Time 6:18 AM EDT 7:54 PM EDT
Civil Twilight 5:48 AM EDT 8:23 PM EDT
Nautical Twilight 5:13 AM EDT 8:59 PM EDT
Astronomical Twilight 4:34 AM EDT 9:37 PM EDT
Moon 11:35 PM EDT (8/22) 12:58 PM EDT (8/22)
Length of Visible Light 14h 35m
Length of Day
13h 35m
Waning Gibbous, 60% of the Moon is Illuminated
Aug 22
Waning Gibbous
Aug 23
Last Quarter
Aug 30
New
Sep 5
First Quarter
Sep 14
Full

Hourly Weather History & Observations

Time (EDT) Temp. Dew Point Humidity Pressure Visibility Wind Dir Wind Speed Gust Speed Precip Events Conditions
12:53 AM 70.0 °F 66.0 °F 87% 29.86 in 10.0 mi WSW 6.9 mph - N/A   Clear
1:53 AM 69.1 °F 66.0 °F 90% 29.86 in 10.0 mi WSW 6.9 mph - N/A   Clear
2:53 AM 68.0 °F 64.9 °F 90% 29.86 in 10.0 mi SW 4.6 mph - N/A   Partly Cloudy
3:53 AM 66.0 °F 64.0 °F 93% 29.85 in 10.0 mi WSW 6.9 mph - N/A   Clear
4:53 AM 66.0 °F 64.9 °F 96% 29.85 in 10.0 mi West 5.8 mph - N/A   Clear
5:53 AM 64.9 °F 64.0 °F 97% 29.87 in 8.0 mi WSW 3.5 mph - N/A   Clear
6:13 AM 64.9 °F 64.0 °F 97% 29.91 in 8.0 mi West 8.1 mph - N/A   Mostly Cloudy
6:53 AM 64.9 °F 64.0 °F 97% 29.89 in 8.0 mi WSW 5.8 mph - N/A   Mostly Cloudy
7:08 AM 66.0 °F 64.0 °F 93% 29.93 in 9.0 mi SW 5.8 mph - N/A   Scattered Clouds
7:40 AM 66.0 °F 64.9 °F 96% 29.94 in 6.0 mi SW 5.8 mph - N/A   Overcast
7:53 AM 66.9 °F 64.9 °F 93% 29.91 in 5.0 mi SSW 4.6 mph - N/A   Overcast
8:53 AM 68.0 °F 64.9 °F 90% 29.91 in 10.0 mi WSW 6.9 mph - N/A   Overcast
9:28 AM 71.1 °F 66.0 °F 84% 29.94 in 10.0 mi West 6.9 mph - N/A   Mostly Cloudy
9:48 AM 71.6 °F 66.2 °F 83% 29.94 in 10.0 mi WSW 8.1 mph - N/A   Mostly Cloudy
9:53 AM 71.1 °F 66.0 °F 84% 29.91 in 10.0 mi West 9.2 mph - N/A   Mostly Cloudy
10:00 AM 71.1 °F 66.0 °F 84% 29.95 in 10.0 mi WSW 5.8 mph - N/A   Mostly Cloudy
10:31 AM 73.0 °F 66.0 °F 79% 29.95 in 10.0 mi NW 5.8 mph - N/A   Mostly Cloudy
10:44 AM 71.1 °F 64.9 °F 81% 29.95 in 10.0 mi NW 9.2 mph - N/A   Mostly Cloudy
10:51 AM 71.6 °F 66.2 °F 83% 29.95 in 10.0 mi WNW 9.2 mph - N/A   Mostly Cloudy
10:53 AM 73.0 °F 64.9 °F 76% 29.92 in 10.0 mi NW 10.4 mph - N/A   Mostly Cloudy
11:53 AM 72.0 °F 64.0 °F 76% 29.93 in 10.0 mi NW 9.2 mph - N/A   Mostly Cloudy
12:53 PM 73.9 °F 61.0 °F 64% 29.93 in 10.0 mi NW 9.2 mph - N/A   Partly Cloudy
1:05 PM 73.0 °F 60.1 °F 64% 29.96 in 10.0 mi WNW 8.1 mph - N/A   Mostly Cloudy
1:38 PM 73.9 °F 60.1 °F 62% 29.95 in 10.0 mi WNW 9.2 mph - N/A   Scattered Clouds
1:53 PM 73.0 °F 57.9 °F 59% 29.93 in 10.0 mi NNW 10.4 mph - N/A   Partly Cloudy
2:53 PM 73.0 °F 55.0 °F 53% 29.92 in 10.0 mi North 9.2 mph - N/A   Clear
3:53 PM 72.0 °F 54.0 °F 53% 29.93 in 10.0 mi North 9.2 mph - N/A   Scattered Clouds
4:53 PM 71.1 °F 54.0 °F 55% 29.92 in 10.0 mi NNW 6.9 mph - N/A   Mostly Cloudy
5:53 PM 68.0 °F 53.1 °F 59% 29.93 in 10.0 mi NNW 8.1 mph - N/A   Overcast
6:53 PM 66.9 °F 54.0 °F 63% 29.95 in 10.0 mi North 6.9 mph - N/A   Overcast
7:53 PM 66.0 °F 54.0 °F 65% 29.94 in 10.0 mi NNW 5.8 mph - N/A   Overcast
8:53 PM 64.0 °F 55.0 °F 73% 29.96 in 10.0 mi North 4.6 mph - N/A   Partly Cloudy
9:53 PM 63.0 °F 54.0 °F 72% 29.97 in 10.0 mi NNW 5.8 mph - N/A   Clear
10:53 PM 61.0 °F 52.0 °F 72% 29.98 in 10.0 mi NW 3.5 mph - N/A   Clear
11:53 PM 60.1 °F 51.1 °F 72% 30.00 in 10.0 mi NW 3.5 mph - N/A   Clear